app download

Ame Nochi Hare Manga

Ame Nochi Hare Manga
Rating: 9.8 of 170310 person votes
Rank 1184 /20,1487
Alternative: Урожай после дождя;あめのちはれ;雨过天晴;Clear Up After Rain;Rendez-vous sous la Pluie (French);อุบัติการณ์วันฝนปราย (Thai);雨過天晴;
Artists: Bikke
Author(s): Bikke
Genres: RomanceShoujoDramaSchool lifeFantasyGender bender
Release: 2015
Status: Ongoing
Summary:

Amagai Gakuen, a prestigious school for boys, was hit by an unusual spring storm during the entrance ceremony. Five boys - Hazuki, Toma, Yusuke, Madoka and Junta - were all caught in the storm's violence and were affected by a strange phenomenon. All of them were transformed into girls!!

Inevitably they will meet someone and fall in love. Bikke wholeheartedly introduces this new, beautifully drawn series about boys and girls coming of age.

vol.8 ch.37 : Miraculous Snowy Night 37 Pages 2017-11-20 17:22:34
vol.8 ch.36 : New Year's Morning 28 Pages 2017-11-20 17:21:34
vol.8 ch.35 : The Winter Holiday 33 Pages 2017-09-11 05:00:00
vol.8 ch.34 : A Hint of Winter 30 Pages 2017-09-11 04:59:00
vol.8 ch.33 : Winter Arrangements 23 Pages 2017-09-11 04:58:00
vol.8 ch.32 : Autumn Rain 29 Pages 2017-05-28 14:44:00
vol.7 ch.31 : The Festival Ends 36 Pages 2017-05-28 14:43:00
vol.7 ch.30 : Rain, Please Fall 2 37 Pages 2017-04-02 16:42:00
vol.7 ch.29 : Rain, Please Fall 37 Pages 2017-02-19 18:06:00
vol.7 ch.28 : An Unexpected Confession 37 Pages 2016-12-09 12:52:00
vol.7 ch.27 : The School Festival 31 Pages 2016-11-13 17:13:00
vol.7 ch.26 : This Summer Made Me Conscious of Something 44 Pages 2016-08-20 18:45:00
vol.6 ch.25 : Heat Wave 47 Pages 2016-04-24 13:34:00
vol.6 ch.24 : Beginning of Summer III 35 Pages 2015-02-18 20:06:00
vol.6 ch.23 : Beginning of Summer II 44 Pages 2014-12-15 15:24:00
vol.6 ch.22 : Beginning of Summer 32 Pages 2014-11-06 07:08:00
vol.6 ch.21 : Waiting For The Southern Winds 21 Pages 2014-10-08 13:13:00
vol.5 ch.20 : Unspoken Memories 40 Pages 2014-05-11 16:53:00
vol.5 ch.19 : June Rain 44 Pages 2014-04-30 18:52:00
vol.5 ch.18 : The Scent of Summer 2 50 Pages 2014-02-06 02:11:00
vol.5 ch.17 : The Scent of Summer 1 45 Pages 2013-12-01 02:51:00
vol.4 ch.16.5 : Omake 2 Pages 2013-09-23 00:43:00
vol.4 ch.16 : Fresh Leaves After Rain 46 Pages 2013-09-23 00:43:00
vol.4 ch.15 : Tempest 50 Pages 2013-04-21 00:00:00
vol.4 ch.14 : A Clear and Sunny Break in May 53 Pages 2013-04-21 00:00:00
vol.4 ch.13 : Love Letter 22 Pages 2013-01-28 00:00:00
vol.3 ch.12.5 : Dorm Head's Diary 7 Pages 2012-10-10 00:00:00
vol.3 ch.12 : Vacation during May with Good Weather part 2 45 Pages 2012-10-03 00:00:00
vol.3 ch.11 : Vacation during May with good Weather 57 Pages 2012-08-06 00:00:00
vol.3 ch.10 : The Moon Along the Clouds, a Flower in the Wind 53 Pages 2012-05-10 00:00:00
vol.2 ch.9 : Flowers in the Rain 74 Pages 2011-09-24 00:00:00
vol.2 ch.8 : Spring's Heart 27 Pages 2011-01-31 00:00:00
vol.2 ch.7 : Sigh 24 Pages 2010-09-01 00:00:00
vol.2 ch.6 : Impressions of a Spring Evening 31 Pages 2010-09-17 00:00:00
vol.1 ch.5 : Dressed in Rain 33 Pages 2010-05-05 00:00:00
vol.1 ch.4 : Many Blooming Flowers 39 Pages 2010-03-30 00:00:00
vol.1 ch.3 : Stars of a Rainy Night 33 Pages 2010-03-24 00:00:00
vol.1 ch.2 : Spring Day Madness 32 Pages 2010-03-11 00:00:00
vol.1 ch.1 : A Spring Storm 43 Pages 2010-02-20 00:00:00
vol.8 ch.38 : Promise 36 Pages 2018-01-01 07:29:11
vol.8 ch.37 : Miraculous Snowy Night 0 Pages 2017-12-16 00:33:40
vol.8 ch.36 v2 : New Year's Morning 0 Pages 2017-12-16 00:33:40
vol.8 ch.34 : A Hint of Winter 30 Pages 2017-12-16 04:54:49
vol.8 ch.36 : New Year's Morning 0 Pages 2017-12-16 00:30:40
vol.8 ch.35 : The Winter Holiday 33 Pages 2017-12-16 02:02:29
vol.8 ch.33 : Winter Arrangements 23 Pages 2017-12-16 04:54:49
vol.8 ch.32 : Autumn Rain 29 Pages 2017-05-28 14:30:00
vol.7 ch.31 : The Festival Ends 36 Pages 2017-05-28 14:28:00
vol.7 ch.30 : Rain, Please Fall 2 37 Pages 2017-04-02 16:11:00
vol.7 ch.29 : Rain, Please Fall 37 Pages 2017-02-19 16:13:00
vol.7 ch.28 : An Unexpected Confession 37 Pages 2016-12-09 12:06:00
vol.7 ch.27 : The School Festival 31 Pages 2016-11-13 17:36:00
vol.7 ch.26 : This Summer Made Me Conscious of Something 44 Pages 2016-09-02 06:32:00
vol.6 ch.25 : Heat Wave 47 Pages 2016-04-25 05:59:00
vol.6 ch.24 : Beginning of Summer III 35 Pages 2015-02-18 19:59:00
vol.6 ch.23 : Beginning of Summer II 44 Pages 2014-12-15 14:50:00
vol.6 ch.21 : Waiting For The Southern Winds 21 Pages 2014-10-08 13:03:00
vol.6 ch.22 : Beginning of Summer 32 Pages 2014-11-06 02:06:00
vol.6 ch.2 : Beginning of Summer 32 Pages 2014-11-06 02:06:00
vol.5 ch.20 : Unspoken Memories 40 Pages 2014-05-11 16:27:00
vol.5 ch.19 : June Rain 44 Pages 2014-04-30 18:29:00
vol.5 ch.18 : The Scent of Summer 2 50 Pages 2014-02-05 17:48:00
vol.5 ch.17 : The Scent of Summer 1 45 Pages 2014-02-05 17:13:00
vol.4 ch.16 : Fresh Leaves After Rain 48 Pages 2013-09-23 19:45:00
vol.4 ch.15 : Tempest 50 Pages 2013-04-27 21:58:00
vol.4 ch.14 : A Clear and Sunny Break in May 53 Pages 2013-03-17 10:42:00
vol.4 ch.13 : Love Letter 22 Pages 2013-01-27 17:47:00
vol.3 ch.12.5 : Dorm Heads' Diary 7 Pages 2012-10-10 19:43:00
vol.3 ch.12 v2 : Vacation during May with Good Weather part 2 7 Pages 2012-10-10 19:43:00
vol.3 ch.12 : Vacation during May with Good Weather part 2 45 Pages 2012-10-03 17:13:00
vol.3 ch.11 : Vacation during May with Good Weather part 1 57 Pages 2012-08-06 10:20:00
vol.3 ch.10 : The Moon Along the Clouds, a Flower in the Wind 53 Pages 2012-05-10 00:05:00
vol.2 ch.9 v2 : Flowers in the Rain 77 Pages 2012-06-17 23:20:00
vol.2 ch.9 : Flowers in the Rain 74 Pages 2011-11-11 02:48:00
vol.2 ch.8 : Spring's Heart 27 Pages 2011-11-11 02:43:00
vol.2 ch.7 : Sigh 24 Pages 2011-11-11 02:40:00
vol.2 ch.6 : Impressions of a Spring Evening 31 Pages 2011-11-11 02:37:00
vol.1 ch.5 : Dressed in Rain 33 Pages 2011-11-11 02:34:00
vol.1 ch.4 : Many Blooming Flowers 39 Pages 2011-11-11 02:31:00
vol.1 ch.3 : Stars of a Rainy Night 33 Pages 2011-11-11 02:28:00
vol.1 ch.2 : Spring Day Madness 32 Pages 2011-11-11 02:25:00
vol.1 ch.1 : A Spring Storm 41 Pages 2011-11-11 02:20:00
vol.3 ch.35 : The Winter Holiday 33 Pages 2017-09-11 05:02:00
vol.3 ch.34 30 Pages 2017-07-26 09:26:00
vol.3 ch.33 23 Pages 2017-07-26 09:25:00
vol.3 ch.32 : Autumn Rain 29 Pages 2017-05-28 23:51:00
vol.3 ch.31 : The Festival Ends 36 Pages 2017-05-28 23:50:00
vol.3 ch.30 : Rain, Please Fall 2 37 Pages 2017-04-02 16:51:00
vol.3 ch.29 : Rain, Please Fall 37 Pages 2017-02-19 16:50:00
vol.3 ch.28 : An Unexpected Confession 37 Pages 2016-12-09 13:04:00
vol.3 ch.27 : The School Festival 31 Pages 2016-11-13 17:27:00
vol.3 ch.26 : This Summer Made Me Conscious of Something 44 Pages 2016-08-20 18:57:00
vol.3 ch.25 : Heat Wave 47 Pages 2016-04-24 14:45:00
vol.3 ch.24 : Beginning of Summer III 35 Pages 2016-04-24 13:59:00
vol.3 ch.23 : Beginning of Summer II 44 Pages 2016-04-25 03:15:00
vol.3 ch.22 : Beginning of Summer 32 Pages 2016-04-25 19:18:00
vol.3 ch.21 : Waiting For The Southern Winds 21 Pages 2016-04-24 12:54:00
vol.3 ch.20 : Unspoken Memories 40 Pages 2016-04-25 19:17:00
vol.3 ch.19 : June Rain 44 Pages 2016-04-25 03:13:00
vol.3 ch.18 : The Scent of Summer 2 50 Pages 2016-04-25 03:00:00
vol.3 ch.17 : The Scent of Summer 1 45 Pages 2016-04-25 19:01:00
vol.3 ch.16.5 2 Pages 2016-04-24 12:51:00
vol.3 ch.16 : Fresh Leaves After Rain 46 Pages 2016-04-25 19:01:00
vol.3 ch.15 : Tempest 50 Pages 2016-04-24 17:58:00
vol.3 ch.14 : A Clear and Sunny Break in May 53 Pages 2016-04-25 19:00:00
vol.3 ch.13 : Love Letter 22 Pages 2016-04-25 19:00:00
vol.3 ch.12.5 : Dorm Head's Diary 7 Pages 2016-04-24 12:44:00
vol.3 ch.12 : Vacation during May with Good Weather part 2 45 Pages 2016-04-24 17:50:00
vol.3 ch.11 : Vacation during May with Good Weather part 1 57 Pages 2016-04-24 17:49:00
vol.3 ch.10 : The Moon Along the Clouds, a Flower in the Wind 53 Pages 2016-04-25 18:59:00
vol.2 ch.9 : Flowers in the Rain 74 Pages 2016-04-24 17:49:00
vol.2 ch.8 : Spring's Heart 27 Pages 2016-04-24 17:48:00
vol.2 ch.7 : Sigh 24 Pages 2016-04-24 17:47:00
vol.2 ch.6 : Impressions of a Spring Evening 31 Pages 2016-04-25 18:59:00
vol.1 ch.5 : Dressed in Rain 33 Pages 2016-04-25 18:58:00
vol.1 ch.4 : Many Blooming Flowers 39 Pages 2016-04-24 13:46:00
vol.1 ch.3 : Stars of a Rainy Night 33 Pages 2016-04-24 13:46:00
vol.1 ch.2 : Spring Day Madness 32 Pages 2016-04-24 13:45:00
vol.1 ch.1 : A Spring Storm 43 Pages 2016-04-24 13:42:00

RELATIVE MANGA